WXM80 ListenWXM80 Stop

You find our weather info also at:

UK Metoffice

WeatherCloud

Weather Underground

Northeastern Weather Network

AWEKAS

Citizen Weather Observer Program (CWOP)

HAMweather, WeatherForYou, PWS Weather


Weather Underground History page Text

Daily Summary for January 15, 2017 Units:  English    Metric   Both
« Previous Day
Next Day »
Daily Weekly Monthly Yearly Custom
  High: Low: Average:
Temperature: 38.2 °F 27.3 °F 32.2 °F
Dew Point: 29.2 °F 23.8 °F 26.5 °F
Humidity: 94 % 62 % 80 %
Wind Speed: 6.0 mph 0.0 mph 1.8 mph
Wind Gust: 11.0 mph - -
Wind:- - WNW
Pressure: 30.39 in 30.24 in -
Precipitation: 0.00 in    
Historical Graphs
 
 
Tabular Data for January 15, 2017
Time Temperature Dew Point Pressure Wind Wind Speed Wind Gust Humidity Rainfall Rate (Hourly)
00:00 29.8 °F 28.0 °F 30.28 in Calm     93 % 0.00 in
00:05 29.8 °F 28.0 °F 30.28 in Calm     93 % 0.00 in
00:10 29.8 °F 28.0 °F 30.28 in Calm     93 % 0.00 in
00:15 29.9 °F 28.1 °F 30.27 in Calm     93 % 0.00 in
00:20 29.9 °F 28.1 °F 30.27 in Calm   1.2 mph 93 % 0.00 in
00:26 30.0 °F 28.2 °F 30.27 in Calm     93 % 0.00 in
00:31 30.0 °F 28.2 °F 30.27 in Calm     93 % 0.00 in
00:36 30.1 °F 28.3 °F 30.27 in Calm     93 % 0.00 in
00:41 30.1 °F 28.6 °F 30.27 in SSE 0.4 mph 1.0 mph 94 % 0.00 in
00:46 30.2 °F 28.7 °F 30.27 in Calm     94 % 0.00 in
00:51 30.2 °F 28.7 °F 30.26 in SSE 0.3 mph 2.3 mph 94 % 0.00 in
00:56 30.2 °F 28.7 °F 30.26 in Calm   1.2 mph 94 % 0.00 in
01:01 30.3 °F 28.8 °F 30.26 in Calm   3.5 mph 94 % 0.00 in
01:06 30.3 °F 28.8 °F 30.26 in Calm     94 % 0.00 in
01:11 30.3 °F 28.8 °F 30.25 in WSW 0.3 mph 1.2 mph 94 % 0.00 in
01:16 30.4 °F 28.9 °F 30.25 in WSW 0.1 mph 1.2 mph 94 % 0.00 in
01:21 30.4 °F 28.6 °F 30.25 in WSW 0.1 mph 1.2 mph 93 % 0.00 in
01:26 30.5 °F 29.0 °F 30.25 in WSW 0.1 mph 1.2 mph 94 % 0.00 in
01:31 30.5 °F 29.0 °F 30.25 in Calm   1.2 mph 94 % 0.00 in
01:36 30.6 °F 29.1 °F 30.25 in WSW 0.6 mph 2.3 mph 94 % 0.00 in
01:42 30.6 °F 29.1 °F 30.25 in Calm     94 % 0.00 in
01:47 30.6 °F 29.1 °F 30.25 in Calm     94 % 0.00 in
01:52 30.6 °F 29.1 °F 30.25 in WSW 0.3 mph 1.0 mph 94 % 0.00 in
01:57 30.5 °F 28.7 °F 30.25 in WSW 0.6 mph   93 % 0.00 in
02:02 30.5 °F 29.0 °F 30.25 in WSW 0.4 mph   94 % 0.00 in
02:07 30.4 °F 28.6 °F 30.25 in Calm     93 % 0.00 in
02:12 30.3 °F 28.5 °F 30.25 in Calm     93 % 0.00 in
02:17 30.3 °F 28.5 °F 30.25 in Calm     93 % 0.00 in
02:22 30.2 °F 28.4 °F 30.25 in Calm     93 % 0.00 in
02:27 30.2 °F 28.4 °F 30.25 in Calm     93 % 0.00 in
02:32 30.1 °F 28.3 °F 30.25 in WSW 1.0 mph 2.3 mph 93 % 0.00 in
02:37 29.9 °F 28.1 °F 30.24 in WSW 0.2 mph 1.2 mph 93 % 0.00 in
02:42 29.9 °F 28.1 °F 30.25 in Calm   1.0 mph 93 % 0.00 in
02:47 29.8 °F 28.0 °F 30.25 in WSW 1.0 mph 2.0 mph 93 % 0.00 in
02:52 29.8 °F 28.0 °F 30.25 in NNW 2.7 mph 7.0 mph 93 % 0.00 in
02:57 30.0 °F 28.2 °F 30.25 in NW 3.4 mph 8.1 mph 93 % 0.00 in
03:03 30.3 °F 28.8 °F 30.24 in WNW 2.9 mph 10.4 mph 94 % 0.00 in
03:08 30.4 °F 28.9 °F 30.24 in West 3.5 mph 6.9 mph 94 % 0.00 in
03:13 30.7 °F 28.9 °F 30.24 in NW 4.2 mph 5.8 mph 93 % 0.00 in
03:18 30.9 °F 29.1 °F 30.24 in West 1.5 mph 4.0 mph 93 % 0.00 in
03:23 31.0 °F 29.2 °F 30.24 in WNW 0.7 mph 3.5 mph 93 % 0.00 in
03:28 31.1 °F 29.0 °F 30.24 in NW 4.0 mph 6.9 mph 92 % 0.00 in
03:33 31.1 °F 29.0 °F 30.24 in NNW 3.7 mph 6.0 mph 92 % 0.00 in
03:38 31.2 °F 28.9 °F 30.24 in West 0.8 mph 4.6 mph 91 % 0.00 in
03:43 31.1 °F 28.8 °F 30.24 in NW 2.4 mph 5.0 mph 91 % 0.00 in
03:48 31.1 °F 28.5 °F 30.24 in NNW 3.2 mph 6.9 mph 90 % 0.00 in
03:53 31.1 °F 28.5 °F 30.24 in West 2.2 mph 8.1 mph 90 % 0.00 in
03:58 31.0 °F 28.1 °F 30.24 in WNW 3.2 mph 5.8 mph 89 % 0.00 in
04:03 31.0 °F 28.1 °F 30.24 in WNW 3.0 mph 4.6 mph 89 % 0.00 in
04:08 30.9 °F 28.0 °F 30.24 in WNW 2.2 mph 3.5 mph 89 % 0.00 in
04:13 30.8 °F 27.9 °F 30.24 in NW 1.5 mph 3.5 mph 89 % 0.00 in
04:18 30.8 °F 27.9 °F 30.24 in NW 3.7 mph 6.0 mph 89 % 0.00 in
04:23 30.7 °F 27.8 °F 30.25 in WNW 2.8 mph 7.0 mph 89 % 0.00 in
04:29 30.7 °F 27.8 °F 30.24 in NW 2.9 mph 5.8 mph 89 % 0.00 in
04:34 30.6 °F 27.7 °F 30.25 in NW 3.1 mph 4.6 mph 89 % 0.00 in
04:39 30.6 °F 27.7 °F 30.25 in NW 1.8 mph 3.5 mph 89 % 0.00 in
04:44 30.5 °F 27.6 °F 30.25 in WNW 2.6 mph 3.0 mph 89 % 0.00 in
04:49 30.5 °F 27.6 °F 30.25 in WNW 0.8 mph 3.5 mph 89 % 0.00 in
04:54 30.5 °F 27.7 °F 30.25 in NW 2.0 mph 7.0 mph 89 % 0.00 in
04:59 30.5 °F 27.6 °F 30.25 in North 3.0 mph 6.9 mph 89 % 0.00 in
05:04 30.5 °F 27.4 °F 30.25 in NNW 1.9 mph 4.6 mph 88 % 0.00 in
05:09 30.5 °F 27.4 °F 30.25 in North 2.6 mph 5.8 mph 88 % 0.00 in
05:14 30.5 °F 27.4 °F 30.25 in NW 2.7 mph 4.6 mph 88 % 0.00 in
05:19 30.4 °F 27.3 °F 30.25 in NNW 2.6 mph 4.6 mph 88 % 0.00 in
05:24 30.4 °F 27.3 °F 30.25 in NW 2.6 mph 8.1 mph 88 % 0.00 in
05:29 30.4 °F 27.3 °F 30.25 in NNW 1.8 mph 3.5 mph 88 % 0.00 in
05:34 30.3 °F 27.2 °F 30.25 in NW 1.7 mph 5.8 mph 88 % 0.00 in
05:40 30.3 °F 27.2 °F 30.25 in NNW 1.0 mph 3.5 mph 88 % 0.00 in
05:45 30.2 °F 27.1 °F 30.25 in NW 2.3 mph 3.5 mph 88 % 0.00 in
05:50 30.2 °F 27.1 °F 30.25 in WNW 1.4 mph 5.8 mph 88 % 0.00 in
05:55 30.1 °F 27.0 °F 30.26 in NW 1.1 mph 4.6 mph 88 % 0.00 in
06:00 30.1 °F 27.0 °F 30.26 in NNW 1.9 mph 3.5 mph 88 % 0.00 in
06:05 30.0 °F 26.9 °F 30.26 in NNW 2.7 mph 5.0 mph 88 % 0.00 in
06:10 30.0 °F 26.9 °F 30.26 in NW 1.8 mph 3.5 mph 88 % 0.00 in
06:15 30.0 °F 26.9 °F 30.26 in North 0.7 mph 2.3 mph 88 % 0.00 in
06:20 29.9 °F 26.8 °F 30.26 in North 1.3 mph 3.5 mph 88 % 0.00 in
06:25 29.9 °F 26.8 °F 30.27 in North 1.5 mph 4.6 mph 88 % 0.00 in
06:30 29.8 °F 26.7 °F 30.27 in North 0.9 mph 2.3 mph 88 % 0.00 in
06:35 29.8 °F 26.7 °F 30.27 in NNW 1.2 mph 2.3 mph 88 % 0.00 in
06:40 29.8 °F 26.7 °F 30.27 in NNE 2.4 mph 3.5 mph 88 % 0.00 in
06:45 29.7 °F 26.6 °F 30.28 in North 2.1 mph 5.8 mph 88 % 0.00 in
06:50 29.7 °F 26.6 °F 30.28 in NNW 1.8 mph 3.5 mph 88 % 0.00 in
06:55 29.6 °F 26.5 °F 30.28 in North 2.3 mph 6.0 mph 88 % 0.00 in
07:01 29.6 °F 26.5 °F 30.29 in NNW 3.2 mph 4.6 mph 88 % 0.00 in
07:06 29.6 °F 26.5 °F 30.29 in NNW 1.4 mph 3.5 mph 88 % 0.00 in
07:11 29.5 °F 26.4 °F 30.30 in North 1.5 mph 3.5 mph 88 % 0.00 in
07:16 29.5 °F 26.4 °F 30.30 in North 2.8 mph 5.8 mph 88 % 0.00 in
07:21 29.4 °F 26.3 °F 30.30 in North 3.5 mph 5.8 mph 88 % 0.00 in
07:26 29.4 °F 26.3 °F 30.30 in North 2.4 mph 3.5 mph 88 % 0.00 in
07:31 29.4 °F 26.3 °F 30.31 in North 1.2 mph 4.6 mph 88 % 0.00 in
07:36 29.4 °F 26.3 °F 30.31 in ENE 2.3 mph 5.8 mph 88 % 0.00 in
07:41 29.5 °F 26.4 °F 30.31 in North 3.0 mph 5.0 mph 88 % 0.00 in
07:46 29.5 °F 26.4 °F 30.31 in NE 4.4 mph 10.0 mph 88 % 0.00 in
07:51 29.6 °F 25.9 °F 30.32 in NNE 4.0 mph 6.9 mph 86 % 0.00 in
07:56 29.8 °F 26.1 °F 30.31 in North 2.6 mph 4.6 mph 86 % 0.00 in
08:01 29.9 °F 25.9 °F 30.32 in North 5.3 mph 11.0 mph 85 % 0.00 in
08:06 29.9 °F 25.7 °F 30.32 in North 4.6 mph 6.9 mph 84 % 0.00 in
08:11 30.0 °F 25.8 °F 30.32 in NNW 3.9 mph 5.8 mph 84 % 0.00 in
08:16 30.1 °F 25.6 °F 30.33 in NNE 3.8 mph 8.1 mph 83 % 0.00 in
08:21 30.2 °F 25.7 °F 30.33 in NW 3.2 mph 5.8 mph 83 % 0.00 in
08:26 30.3 °F 25.5 °F 30.33 in North 3.1 mph 10.4 mph 82 % 0.00 in
08:31 30.4 °F 25.6 °F 30.33 in NNW 4.0 mph 6.0 mph 82 % 0.00 in
08:37 30.5 °F 25.4 °F 30.33 in North 4.2 mph 6.9 mph 81 % 0.00 in
08:42 30.6 °F 25.5 °F 30.33 in NNE 3.6 mph 5.8 mph 81 % 0.00 in
08:45 30.7 °F 25.6 °F 30.33 in NNW 5.4 mph 9.2 mph 81 % 0.00 in
08:50 30.8 °F 25.4 °F 30.33 in North 1.6 mph 3.5 mph 80 % 0.00 in
08:55 31.0 °F 25.6 °F 30.33 in NNE 2.8 mph 4.0 mph 80 % 0.00 in
09:00 31.1 °F 25.7 °F 30.34 in WNW 2.0 mph 3.5 mph 80 % 0.00 in
09:05 31.3 °F 25.8 °F 30.33 in NW 1.5 mph 3.5 mph 80 % 0.00 in
09:10 31.4 °F 25.6 °F 30.33 in NNW 3.2 mph 5.8 mph 79 % 0.00 in
09:15 31.5 °F 25.7 °F 30.34 in North 2.5 mph 4.6 mph 79 % 0.00 in
09:20 31.7 °F 25.9 °F 30.33 in NW 1.8 mph 3.5 mph 79 % 0.00 in
09:25 31.9 °F 26.1 °F 30.34 in NW 1.4 mph 3.5 mph 79 % 0.00 in
09:30 32.2 °F 26.1 °F 30.34 in NW 2.7 mph 5.8 mph 78 % 0.00 in
09:35 32.4 °F 26.0 °F 30.33 in NW 2.4 mph 4.6 mph 77 % 0.00 in
09:41 32.6 °F 26.2 °F 30.34 in NNW 3.9 mph 6.9 mph 77 % 0.00 in
09:46 32.8 °F 26.7 °F 30.34 in NNW 4.3 mph 5.8 mph 78 % 0.00 in
09:51 33.1 °F 26.7 °F 30.34 in NNW 4.5 mph 8.1 mph 77 % 0.00 in
09:56 33.3 °F 26.9 °F 30.34 in North 2.4 mph 4.6 mph 77 % 0.00 in
10:01 33.5 °F 27.1 °F 30.34 in WNW 2.8 mph 3.0 mph 77 % 0.00 in
10:07 33.7 °F 26.9 °F 30.34 in NNW 3.7 mph 4.6 mph 76 % 0.00 in
10:12 33.9 °F 27.1 °F 30.34 in North 2.3 mph 4.0 mph 76 % 0.00 in
10:17 34.0 °F 27.2 °F 30.34 in NW 4.2 mph 6.0 mph 76 % 0.00 in
10:22 34.1 °F 27.3 °F 30.34 in WNW 3.7 mph 7.0 mph 76 % 0.00 in
10:27 34.2 °F 27.4 °F 30.34 in NW 3.3 mph 6.9 mph 76 % 0.00 in
10:32 34.3 °F 27.2 °F 30.34 in WNW 3.3 mph 6.9 mph 75 % 0.00 in
10:37 34.3 °F 27.2 °F 30.34 in NNW 2.0 mph 8.1 mph 75 % 0.00 in
10:42 34.4 °F 27.3 °F 30.34 in West 4.5 mph 6.9 mph 75 % 0.00 in
10:47 34.4 °F 27.3 °F 30.33 in NW 3.0 mph 5.0 mph 75 % 0.00 in
10:52 34.4 °F 27.0 °F 30.33 in North 1.9 mph 5.8 mph 74 % 0.00 in
10:57 34.5 °F 27.1 °F 30.33 in WNW 4.3 mph 6.9 mph 74 % 0.00 in
11:02 34.6 °F 26.8 °F 30.33 in West 4.3 mph 6.9 mph 73 % 0.00 in
11:07 34.7 °F 26.9 °F 30.33 in NNW 4.7 mph 8.1 mph 73 % 0.00 in
11:12 34.8 °F 27.0 °F 30.33 in NW 2.9 mph 5.8 mph 73 % 0.00 in
11:17 34.8 °F 27.0 °F 30.32 in NW 3.6 mph 3.6 mph 73 % 0.00 in
11:23 34.7 °F 26.9 °F 30.32 in NW 3.4 mph 4.0 mph 73 % 0.00 in
11:28 34.7 °F 26.6 °F 30.32 in WNW 3.7 mph 10.4 mph 72 % 0.00 in
11:33 34.7 °F 26.9 °F 30.32 in NW 3.9 mph 5.8 mph 73 % 0.00 in
11:38 34.7 °F 26.9 °F 30.32 in NW 3.9 mph 9.2 mph 73 % 0.00 in
11:43 34.8 °F 26.7 °F 30.32 in WNW 5.6 mph 9.2 mph 72 % 0.00 in
11:48 34.8 °F 26.7 °F 30.32 in West 3.9 mph 6.9 mph 72 % 0.00 in
11:53 34.8 °F 26.7 °F 30.31 in West 3.9 mph 4.6 mph 72 % 0.00 in
11:58 34.9 °F 26.8 °F 30.31 in NW 3.1 mph 8.1 mph 72 % 0.00 in
12:03 34.9 °F 26.8 °F 30.31 in NNW 3.5 mph 4.6 mph 72 % 0.00 in
12:08 35.0 °F 26.5 °F 30.31 in NW 4.6 mph 7.0 mph 71 % 0.00 in
12:13 35.1 °F 27.0 °F 30.31 in WNW 5.7 mph 10.4 mph 72 % 0.00 in
12:18 35.3 °F 26.8 °F 30.31 in West 2.1 mph 4.0 mph 71 % 0.00 in
12:23 35.5 °F 27.0 °F 30.30 in NW 3.9 mph 5.8 mph 71 % 0.00 in
12:28 35.8 °F 27.3 °F 30.30 in NW 2.1 mph 5.0 mph 71 % 0.00 in
12:33 36.0 °F 27.2 °F 30.30 in WNW 6.0 mph 9.2 mph 70 % 0.00 in
12:38 36.2 °F 26.6 °F 30.30 in WNW 4.4 mph 9.2 mph 68 % 0.00 in
12:44 36.4 °F 27.2 °F 30.30 in WNW 2.7 mph 5.8 mph 69 % 0.00 in
12:49 36.5 °F 26.9 °F 30.29 in WNW 2.1 mph 4.6 mph 68 % 0.00 in
12:54 36.6 °F 27.0 °F 30.29 in WNW 4.0 mph 6.9 mph 68 % 0.00 in
12:59 36.8 °F 26.9 °F 30.29 in WNW 2.6 mph 5.0 mph 67 % 0.00 in
13:04 36.8 °F 26.9 °F 30.29 in NW 2.0 mph 9.0 mph 67 % 0.00 in
13:09 37.0 °F 27.1 °F 30.29 in WNW 2.0 mph 7.0 mph 67 % 0.00 in
13:14 37.1 °F 26.8 °F 30.29 in WNW 3.0 mph 8.0 mph 66 % 0.00 in
13:19 37.1 °F 26.4 °F 30.29 in WNW 6.0 mph 8.0 mph 65 % 0.00 in
13:24 37.1 °F 26.0 °F 30.29 in WNW 6.0 mph 10.0 mph 64 % 0.00 in
13:29 37.2 °F 26.1 °F 30.29 in WNW 3.0 mph 9.0 mph 64 % 0.00 in
13:34 37.3 °F 26.6 °F 30.29 in WNW 3.0 mph 10.0 mph 65 % 0.00 in
13:39 37.5 °F 26.8 °F 30.29 in West 3.0 mph 7.0 mph 65 % 0.00 in
13:44 37.7 °F 26.6 °F 30.29 in WSW 3.4 mph 9.2 mph 64 % 0.00 in
13:49 37.8 °F 26.7 °F 30.29 in WSW 3.0 mph 9.0 mph 64 % 0.00 in
13:54 38.1 °F 27.4 °F 30.29 in WSW 2.4 mph 7.0 mph 65 % 0.00 in
13:59 38.2 °F 27.1 °F 30.29 in WNW 4.3 mph 6.9 mph 64 % 0.00 in
14:04 38.2 °F 26.7 °F 30.29 in West 4.0 mph 6.9 mph 63 % 0.00 in
14:09 38.2 °F 27.1 °F 30.29 in WNW 1.5 mph 3.5 mph 64 % 0.00 in
14:14 38.2 °F 26.7 °F 30.28 in WNW 4.5 mph 8.0 mph 63 % 0.00 in
14:19 38.2 °F 26.3 °F 30.28 in NW 5.4 mph 8.0 mph 62 % 0.00 in
14:24 38.2 °F 26.3 °F 30.28 in WNW 1.6 mph 2.3 mph 62 % 0.00 in
14:29 38.0 °F 26.1 °F 30.28 in WNW 2.5 mph 5.8 mph 62 % 0.00 in
14:34 37.9 °F 26.0 °F 30.28 in WSW 4.0 mph 7.0 mph 62 % 0.00 in
14:40 37.7 °F 25.8 °F 30.28 in WNW 4.7 mph 6.0 mph 62 % 0.00 in
14:45 37.6 °F 25.7 °F 30.29 in NW 3.8 mph 7.0 mph 62 % 0.00 in
14:50 37.4 °F 25.9 °F 30.29 in NW 3.2 mph 4.0 mph 63 % 0.00 in
14:55 37.3 °F 25.8 °F 30.29 in WNW 3.2 mph 4.0 mph 63 % 0.00 in
15:00 37.3 °F 25.8 °F 30.29 in West 2.4 mph 5.0 mph 63 % 0.00 in
15:05 37.2 °F 26.1 °F 30.29 in NW 1.4 mph 3.5 mph 64 % 0.00 in
15:10 37.1 °F 26.0 °F 30.29 in NW 4.4 mph 6.0 mph 64 % 0.00 in
15:15 37.1 °F 26.0 °F 30.29 in West 1.1 mph 3.5 mph 64 % 0.00 in
15:20 37.0 °F 25.9 °F 30.29 in West 0.5 mph 3.5 mph 64 % 0.00 in
15:25 37.0 °F 25.9 °F 30.29 in WSW 4.5 mph 5.8 mph 64 % 0.00 in
15:30 37.0 °F 25.9 °F 30.30 in NW 4.3 mph 6.0 mph 64 % 0.00 in
15:35 37.1 °F 26.0 °F 30.30 in WSW 1.9 mph 6.0 mph 64 % 0.00 in
15:40 37.1 °F 26.0 °F 30.30 in WNW 2.4 mph 4.6 mph 64 % 0.00 in
15:45 37.1 °F 26.0 °F 30.30 in WNW 0.8 mph 4.0 mph 64 % 0.00 in
15:50 37.1 °F 26.0 °F 30.30 in West 1.4 mph 6.0 mph 64 % 0.00 in
15:55 37.1 °F 26.0 °F 30.30 in WNW 1.3 mph 3.5 mph 64 % 0.00 in
16:00 37.1 °F 26.0 °F 30.30 in WNW 0.1 mph 1.2 mph 64 % 0.00 in
16:05 37.0 °F 26.3 °F 30.30 in WNW 1.4 mph 3.0 mph 65 % 0.00 in
16:10 37.0 °F 26.3 °F 30.30 in NW 1.5 mph 3.5 mph 65 % 0.00 in
16:15 37.0 °F 25.9 °F 30.30 in WNW 3.1 mph 3.5 mph 64 % 0.00 in
16:21 36.9 °F 25.5 °F 30.30 in NNW 2.6 mph 3.5 mph 63 % 0.00 in
16:26 36.9 °F 25.9 °F 30.30 in NW 0.1 mph 1.2 mph 64 % 0.00 in
16:31 36.9 °F 26.2 °F 30.30 in NW 0.7 mph 4.0 mph 65 % 0.00 in
16:36 36.8 °F 25.8 °F 30.31 in NW 1.3 mph 3.5 mph 64 % 0.00 in
16:41 36.7 °F 25.7 °F 30.31 in WNW 0.1 mph 3.5 mph 64 % 0.00 in
16:46 36.6 °F 25.6 °F 30.31 in WNW 0.2 mph 3.5 mph 64 % 0.00 in
16:51 36.5 °F 25.5 °F 30.31 in Calm   3.5 mph 64 % 0.00 in
16:56 36.4 °F 25.4 °F 30.31 in Calm   1.2 mph 64 % 0.00 in
17:01 36.2 °F 25.6 °F 30.31 in Calm   1.2 mph 65 % 0.00 in
17:06 36.0 °F 25.4 °F 30.31 in NW 0.5 mph 1.2 mph 65 % 0.00 in
17:11 35.7 °F 25.4 °F 30.31 in NW 0.4 mph 2.0 mph 66 % 0.00 in
17:16 35.5 °F 25.6 °F 30.31 in NW 0.5 mph 2.3 mph 67 % 0.00 in
17:21 35.3 °F 25.8 °F 30.32 in Calm   1.2 mph 68 % 0.00 in
17:26 35.1 °F 25.6 °F 30.32 in Calm     68 % 0.00 in
17:32 34.8 °F 25.7 °F 30.32 in NW 0.4 mph 2.3 mph 69 % 0.00 in
17:37 34.3 °F 25.5 °F 30.32 in NW 0.9 mph 2.3 mph 70 % 0.00 in
17:42 33.9 °F 25.5 °F 30.33 in NW 0.4 mph 1.2 mph 71 % 0.00 in
17:47 33.7 °F 25.3 °F 30.33 in NW 0.2 mph 1.2 mph 71 % 0.00 in
17:52 33.3 °F 25.2 °F 30.33 in NW 0.2 mph 2.3 mph 72 % 0.00 in
17:57 33.1 °F 25.4 °F 30.33 in NW 1.3 mph 2.3 mph 73 % 0.00 in
18:02 32.9 °F 25.2 °F 30.33 in NW 0.3 mph 1.0 mph 73 % 0.00 in
18:07 32.7 °F 25.3 °F 30.33 in NW 0.4 mph 1.2 mph 74 % 0.00 in
18:12 32.5 °F 25.5 °F 30.34 in NW 0.2 mph 1.2 mph 75 % 0.00 in
18:17 32.3 °F 25.6 °F 30.33 in NW 1.3 mph 2.3 mph 76 % 0.00 in
18:22 32.0 °F 25.3 °F 30.33 in NW 0.3 mph 1.2 mph 76 % 0.00 in
18:27 31.8 °F 25.1 °F 30.33 in NW 0.3 mph 1.2 mph 76 % 0.00 in
18:32 31.6 °F 25.2 °F 30.34 in NW 1.2 mph 2.3 mph 77 % 0.00 in
18:38 31.4 °F 25.0 °F 30.34 in NW 1.4 mph 3.5 mph 77 % 0.00 in
18:43 31.3 °F 25.2 °F 30.34 in Calm   1.2 mph 78 % 0.00 in
18:48 31.1 °F 25.0 °F 30.35 in NW 1.1 mph 2.3 mph 78 % 0.00 in
18:53 31.0 °F 24.9 °F 30.34 in NW 2.0 mph 3.0 mph 78 % 0.00 in
18:58 30.8 °F 25.1 °F 30.34 in WNW 1.1 mph 2.3 mph 79 % 0.00 in
19:03 30.7 °F 25.0 °F 30.34 in WNW 1.6 mph 3.5 mph 79 % 0.00 in
19:08 30.6 °F 24.9 °F 30.34 in WNW 0.9 mph 2.3 mph 79 % 0.00 in
19:13 30.5 °F 24.8 °F 30.34 in WNW 0.6 mph 2.3 mph 79 % 0.00 in
19:18 30.4 °F 25.0 °F 30.35 in WNW 0.2 mph 3.5 mph 80 % 0.00 in
19:23 30.3 °F 24.9 °F 30.35 in WNW 0.1 mph 1.2 mph 80 % 0.00 in
19:28 30.3 °F 24.9 °F 30.34 in WNW 0.5 mph 2.3 mph 80 % 0.00 in
19:33 30.2 °F 24.8 °F 30.34 in WNW 0.2 mph 1.2 mph 80 % 0.00 in
19:38 30.1 °F 24.7 °F 30.34 in WNW 1.4 mph 2.3 mph 80 % 0.00 in
19:43 30.1 °F 24.7 °F 30.34 in WNW 0.4 mph 2.3 mph 80 % 0.00 in
19:48 30.0 °F 24.6 °F 30.34 in WNW 1.0 mph 2.3 mph 80 % 0.00 in
19:54 29.9 °F 24.8 °F 30.34 in Calm   1.2 mph 81 % 0.00 in
19:59 29.8 °F 25.0 °F 30.34 in WNW 0.9 mph 3.5 mph 82 % 0.00 in
20:04 29.8 °F 25.0 °F 30.34 in WNW 1.1 mph 2.3 mph 82 % 0.00 in
20:09 29.7 °F 24.9 °F 30.35 in WNW 2.3 mph 3.5 mph 82 % 0.00 in
20:14 29.8 °F 25.3 °F 30.35 in West 1.1 mph 1.2 mph 83 % 0.00 in
20:19 29.8 °F 25.3 °F 30.36 in West 1.0 mph 2.3 mph 83 % 0.00 in
20:24 29.8 °F 25.3 °F 30.36 in West 1.0 mph 3.0 mph 83 % 0.00 in
20:29 29.9 °F 25.4 °F 30.36 in West 1.0 mph 4.0 mph 83 % 0.00 in
20:34 30.0 °F 25.5 °F 30.36 in West 1.0 mph 3.0 mph 83 % 0.00 in
20:39 30.1 °F 25.6 °F 30.37 in West 2.0 mph 4.0 mph 83 % 0.00 in
20:44 30.2 °F 25.6 °F 30.37 in West 2.0 mph 4.0 mph 83 % 0.00 in
20:49 30.3 °F 25.8 °F 30.38 in WNW 1.0 mph 3.0 mph 83 % 0.00 in
20:54 30.4 °F 25.6 °F 30.37 in WNW 0.5 mph 3.5 mph 82 % 0.00 in
20:59 30.5 °F 25.7 °F 30.37 in WNW 0.5 mph 1.0 mph 82 % 0.00 in
21:04 30.6 °F 25.5 °F 30.37 in West 0.5 mph 2.3 mph 81 % 0.00 in
21:09 30.7 °F 25.6 °F 30.36 in West 0.3 mph 3.5 mph 81 % 0.00 in
21:14 30.7 °F 25.6 °F 30.36 in Calm   2.3 mph 81 % 0.00 in
21:19 30.7 °F 25.3 °F 30.37 in West 0.6 mph 2.3 mph 80 % 0.00 in
21:24 30.6 °F 25.2 °F 30.37 in Calm   1.2 mph 80 % 0.00 in
21:29 30.5 °F 25.4 °F 30.37 in West 0.6 mph 1.2 mph 81 % 0.00 in
21:34 30.4 °F 25.3 °F 30.37 in Calm     81 % 0.00 in
21:39 30.2 °F 25.1 °F 30.36 in West 1.3 mph 2.3 mph 81 % 0.00 in
21:44 30.0 °F 24.9 °F 30.37 in West 0.1 mph 2.3 mph 81 % 0.00 in
21:49 29.9 °F 25.1 °F 30.37 in West 0.3 mph 1.2 mph 82 % 0.00 in
21:54 29.6 °F 24.8 °F 30.37 in West 0.9 mph 3.5 mph 82 % 0.00 in
21:59 29.5 °F 25.0 °F 30.37 in West 0.4 mph 2.3 mph 83 % 0.00 in
22:04 29.4 °F 24.9 °F 30.37 in Calm   2.3 mph 83 % 0.00 in
22:10 29.4 °F 24.9 °F 30.37 in West 0.2 mph 1.0 mph 83 % 0.00 in
22:15 29.3 °F 24.8 °F 30.37 in West 0.2 mph 1.2 mph 83 % 0.00 in
22:20 29.3 °F 25.1 °F 30.38 in West 0.1 mph 1.2 mph 84 % 0.00 in
22:25 29.2 °F 25.0 °F 30.38 in West 1.7 mph 3.5 mph 84 % 0.00 in
22:30 29.2 °F 25.0 °F 30.38 in West 0.2 mph 2.3 mph 84 % 0.00 in
22:35 29.1 °F 24.9 °F 30.38 in West 0.1 mph 1.2 mph 84 % 0.00 in
22:40 29.1 °F 25.2 °F 30.37 in Calm     85 % 0.00 in
22:45 29.0 °F 25.1 °F 30.38 in Calm     85 % 0.00 in
22:46 29.0 °F 25.1 °F 30.38 in Calm     85 % 0.00 in
22:51 28.8 °F 24.6 °F 30.38 in West 1.3 mph 2.3 mph 84 % 0.00 in
22:56 28.6 °F 24.7 °F 30.39 in Calm     85 % 0.00 in
23:01 28.5 °F 24.3 °F 30.38 in Calm     84 % 0.00 in
23:06 28.3 °F 24.1 °F 30.38 in Calm     84 % 0.00 in
23:11 28.1 °F 23.9 °F 30.38 in Calm     84 % 0.00 in
23:16 28.0 °F 23.8 °F 30.39 in Calm   1.2 mph 84 % 0.00 in
23:21 27.8 °F 23.9 °F 30.38 in Calm   2.3 mph 85 % 0.00 in
23:26 27.7 °F 24.1 °F 30.39 in NNW 0.1 mph 1.0 mph 86 % 0.00 in
23:32 27.6 °F 24.0 °F 30.39 in NNW 0.1 mph 1.2 mph 86 % 0.00 in
23:37 27.6 °F 24.0 °F 30.39 in Calm     86 % 0.00 in
23:42 27.5 °F 24.1 °F 30.38 in Calm   1.2 mph 87 % 0.00 in
23:47 27.5 °F 24.1 °F 30.38 in Calm     87 % 0.00 in
23:52 27.4 °F 24.0 °F 30.38 in Calm     87 % 0.00 in
23:57 27.3 °F 23.9 °F 30.39 in Calm     87 % 0.00 in
Crab Meadow Weather
Compliments of Weather Underground - 3 mb

Script developed by  Jim McMurry - jmcmurry@mwt.net Adapted for the template by  Wim van der Kuil - Leuven-Template.eu

Weather Terms: Gustnado - A gust front tornado. A small, weak, short-lived tornado that occurs along a gust front - the leading edge of a thunderstorm, caused by rain-cooled air flowing out from the storm's downdraft. A gustnado is often visible as a debris cloud or dust whirl.